{"data":{"norad_id":48791,"epoch":"2026-05-24T16:59:48.499008Z","epoch_age_seconds":96341,"freshness":"FRESH","line1":"1 48791U 21045AA  26144.70820022  .00000067  00000+0  14406-3 0  9999","line2":"2 48791  87.8999 263.8646 0001886 101.9484 258.1858 13.15547760241346","mean_motion":13.1554776,"eccentricity":0.0001886,"inclination_deg":87.8999,"raan_deg":263.8646,"arg_perigee_deg":101.9484,"mean_anomaly_deg":258.1858,"bstar":0.00014406,"rev_number":24134,"period_min":109.46010808456,"perigee_km":1200.3442308258,"apogee_km":1203.2033731804,"semimajor_km":7579.9108020031,"source":"CELESTRAK","updated_at":"2026-05-25T13:38:22.446658Z"}}